Columbus, GA

2:00 AM EDT on October 19, 2017 (GMT -0400)
Columbus Metro

Weather History for KCSG - April, 2013

Change the Weather History Date:

Friday, April 26, 2013

  Actual Average Record
Temperature  
Mean Temperature 67 °F 67 °F  
Max Temperature 82 °F 79 °F 91 °F (1986)
Min Temperature 51 °F 55 °F 34 °F (1910)
Degree Days  
Heating Degree Days 0 1  
Month to date heating degree days 67 86  
Since 1 July heating degree days 1773 2109  
Cooling Degree Days 2 4  
Month to date cooling degree days 68 62  
Year to date cooling degree days 101 89  
Growing Degree Days 16 (Base 50)    
Moisture  
Dew Point 34 °F    
Average Humidity 33    
Maximum Humidity 50    
Minimum Humidity 16    
Precipitation  
Precipitation 0.00 in 0.11 in 3.58 in (1908)
Month to date precipitation 2.61 3.12  
Year to date precipitation 21.64 16.87  
Sea Level Pressure  
Sea Level Pressure 30.27 in    
Wind  
Wind Speed 5 mph (East)    
Max Wind Speed 13 mph    
Max Gust Speed 16 mph    
Visibility 10 miles    
Events      
T = Trace of Precipitation, MM = Missing Value Source: NWS Daily Summary

Daily Weather History Graph

Daily Weather History Graph

Search for Another Location

Airport or City:

Trip Planner

Search our weather history database for the weather conditions in past years. The results will help you decide how hot, cold, wet, or windy it might be!

Date:

Astronomy

Apr. 26, 2013 Rise Set
Actual Time 6:57 AM EDT 8:17 PM EDT
Civil Twilight 6:31 AM EDT 8:43 PM EDT
Nautical Twilight 6:01 AM EDT 9:14 PM EDT
Astronomical Twilight 5:29 AM EDT 9:46 PM EDT
Moon 9:34 PM EDT (4/26) 7:27 AM EDT (4/26)
Length of Visible Light 14h 11m
Length of Day
13h 19m
Full, 99% of the Moon is Illuminated
Apr 26
Full
May 2
Last Quarter
May 9
New
May 18
First Quarter
May 25
Full

Hourly Weather History & Observations

Time (EDT) Temp. Dew Point Humidity Pressure Visibility Wind Dir Wind Speed Gust Speed Precip Events Conditions
12:51 AM 59.0 °F 33.1 °F 38% 30.28 in 10.0 mi NNE 6.9 mph - N/A   Clear
1:51 AM 57.9 °F 32.0 °F 37% 30.28 in 10.0 mi Calm Calm - N/A   Clear
2:51 AM 55.9 °F 33.1 °F 42% 30.27 in 10.0 mi NNE 3.5 mph - N/A   Clear
3:51 AM 55.0 °F 33.1 °F 43% 30.27 in 10.0 mi NNE 3.5 mph - N/A   Clear
4:51 AM 54.0 °F 33.1 °F 45% 30.26 in 10.0 mi NNE 3.5 mph - N/A   Clear
5:51 AM 53.1 °F 33.1 °F 47% 30.27 in 10.0 mi NNE 3.5 mph - N/A   Clear
6:51 AM 51.1 °F 33.1 °F 50% 30.28 in 10.0 mi NNE 3.5 mph - N/A   Clear
7:51 AM 52.0 °F 34.0 °F 50% 30.30 in 10.0 mi North 3.5 mph - N/A   Clear
8:51 AM 57.9 °F 35.1 °F 42% 30.32 in 10.0 mi ENE 6.9 mph - N/A   Clear
9:51 AM 63.0 °F 34.0 °F 34% 30.32 in 10.0 mi East 8.1 mph - N/A   Clear
10:51 AM 66.9 °F 35.1 °F 31% 30.32 in 10.0 mi East 8.1 mph - N/A   Clear
11:51 AM 72.0 °F 36.0 °F 27% 30.33 in 10.0 mi ESE 9.2 mph - N/A   Clear
12:51 PM 77.0 °F 33.1 °F 20% 30.31 in 10.0 mi SSE 11.5 mph 16.1 mph N/A   Clear
1:51 PM 77.0 °F 30.9 °F 19% 30.31 in 10.0 mi Calm Calm - N/A   Clear
2:51 PM 79.0 °F 32.0 °F 18% 30.29 in 10.0 mi SE 8.1 mph - N/A   Clear
3:51 PM 80.1 °F 32.0 °F 17% 30.26 in 9.0 mi SW 5.8 mph - N/A   Clear
4:51 PM 81.0 °F 30.9 °F 16% 30.24 in 9.0 mi WNW 4.6 mph - N/A   Smoke
5:51 PM 81.0 °F 32.0 °F 17% 30.24 in 10.0 mi SSW 8.1 mph - N/A   Smoke
6:51 PM 80.1 °F 32.0 °F 17% 30.25 in 10.0 mi South 4.6 mph - N/A   Smoke
7:51 PM 75.9 °F 35.1 °F 23% 30.25 in 10.0 mi SE 4.6 mph - N/A   Smoke
8:51 PM 72.0 °F 37.9 °F 29% 30.22 in 10.0 mi SE 4.6 mph - N/A   Smoke
9:51 PM 71.1 °F 41.0 °F 34% 30.23 in 10.0 mi ENE 3.5 mph - N/A   Smoke
10:51 PM 66.9 °F 43.0 °F 42% 30.24 in 10.0 mi East 3.5 mph - N/A   Smoke
11:51 PM 66.0 °F 43.0 °F 43% 30.26 in 10.0 mi East 3.5 mph - N/A   Smoke